Location: Phone Location
(34.1440°N, 118.1100°W)
Time: 06:21:54
(UTC-08:00)

ISS - Visible Passes

Search period start: 23 February 2020 00:00
Search period end: 04 March 2020 00:00
Orbit: 415 x 422 km, 51.6° (Epoch: 23 February)

Date Brightness Start Highest point End Pass type
(mag) Time Alt. Az. Time Alt. Az. Time Alt. Az.
23 Feb -2.8 04:39:52 48° E 04:39:52 48° E 04:42:33 10° NE visible
24 Feb -0.2 03:54:38 10° ENE 03:54:38 10° ENE 03:54:40 10° ENE visible
24 Feb -2.3 05:27:37 20° WNW 05:28:28 22° NW 05:31:13 10° NNE visible
25 Feb -1.9 04:42:13 23° NNE 04:42:13 23° NNE 04:43:52 10° NNE visible
26 Feb -1.3 05:29:39 10° NW 05:30:21 10° NNW 05:31:02 10° NNW visible
27 Feb -1.1 04:44:00 12° N 04:44:00 12° N 04:44:30 10° N visible
